RH
29 29 28 27 28 27 25 22 19 17 11 4 13 89 99 71 33 29 37 42 37 38 25 41 71 62 25 77 73 97 99 56 26 21 17 64 53 26 20 12 16 20 20 19 21
33 33 31 30 30 29 26 24 21 14 8 7 45 93 99 47 31 36 46 68 74 74 66 37 40 56 25 44 97 82 90 66 32 26 29 47 54 25 11 7 11 17 25 22 20
35 33 33 33 34 32 30 26 18 13 6 12 31 100 96 48 44 62 60 62 57 72 98 64 36 29 24 40 95 95 98 90 42 34 50 73 100 34 20 16 20 63 48 18 18
39 33 32 34 37 36 32 25 16 11 8 15 50 100 70 44 60 65 100 84 69 62 79 88 49 26 22 52 99 96 84 99 80 60 81 92 76 26 26 31 40 95 70 51 19
38 37 35 35 37 38 35 23 17 8 13 19 56 80 60 46 49 73 91 100 82 76 54 84 58 30 22 87 99 92 72 98 94 100 93 100 59 35 30 65 86 60 40 40 20
34 31 33 39 41 40 34 21 17 6 16 17 48 61 41 36 54 73 86 71 100 77 60 80 62 29 26 53 84 84 74 98 94 100 85 87 66 99 63 32 65 68 54 26 27
29 33 30 38 46 44 32 18 17 7 19 21 23 26 43 56 53 63 74 62 94 82 82 96 37 30 27 88 100 81 77 99 99 98 88 92 71 86 52 31 48 83 71 25 23
50 48 37 46 53 46 32 17 18 8 20 31 30 30 30 34 47 80 82 55 92 100 66 82 31 94 41 59 100 100 84 95 98 98 100 96 55 94 41 44 57 38 37 18 29
53 55 55 59 61 47 31 17 19 8 12 17 22 22 40 62 87 65 57 50 86 100 52 52 27 96 64 100 100 100 94 95 97 97 99 91 66 98 73 72 37 29 21 22 23
44 47 61 66 67 50 28 17 22 10 12 15 19 25 34 43 58 81 53 72 100 100 45 36 73 100 99 98 99 100 100 98 98 88 98 77 71 61 73 72 41 31 36 30 30
28 32 44 74 73 52 26 17 22 13 13 19 18 25 34 56 76 99 100 70 88 77 36 27 100 100 100 66 91 94 89 91 100 97 96 74 74 68 80 88 67 41 39 32 34
42 39 50 68 82 54 28 19 23 16 15 24 31 28 37 56 64 100 100 97 58 67 28 28 58 94 100 100 78 100 97 100 100 93 99 100 72 77 100 100 88 63 45 52 37
34 51 63 73 91 68 29 21 25 20 14 27 42 69 73 70 78 100 100 100 74 56 27 29 51 89 96 100 64 98 99 90 90 100 98 98 70 90 98 100 98 70 57 48 50
30 42 61 74 89 90 44 20 25 25 16 18 26 51 63 57 72 100 100 89 58 32 27 32 77 99 100 99 99 99 91 99 96 95 98 100 86 96 100 100 97 79 68 37 46
70 45 77 76 80 98 74 24 24 28 24 16 18 34 60 76 33 29 61 23 26 28 32 49 85 99 75 77 100 96 100 95 97 99 95 99 100 87 97 99 93 81 72 52 45
91 84 49 78 91 89 96 46 36 26 30 19 15 32 37 76 64 34 19 20 23 27 33 55 67 91 78 95 95 96 80 97 90 98 99 100 88 92 89 81 92 85 86 63 56
96 94 76 69 93 63 97 83 46 25 24 23 22 26 30 46 79 78 48 35 26 31 37 44 53 81 86 87 93 75 63 70 84 97 95 98 86 73 80 88 88 95 87 69 62
95 98 96 91 95 92 80 98 60 36 23 19 19 22 21 23 41 72 82 52 29 30 46 48 53 56 89 92 100 100 97 83 54 73 86 88 57 50 57 70 78 86 91 94 76
96 96 97 96 93 97 87 95 95 66 42 21 20 19 24 23 18 33 68 57 25 26 30 33 32 43 69 72 50 52 47 50 64 92 86 58 48 47 55 67 60 65 65 62 81
97 97 95 96 95 95 96 95 96 96 91 34 25 20 22 21 23 14 23 34 19 19 29 26 19 25 36 46 54 45 42 34 28 33 34 39 37 32 32 39 40 57 60 56 72
96 99 98 95 94 95 97 97 95 96 96 92 42 26 19 22 20 19 13 15 21 26 24 17 22 16 17 16 20 27 27 25 28 30 28 28 20 22 34 36 35 39 47 53 61
97 94 98 96 97 95 96 97 97 95 96 98 96 63 36 19 21 25 19 13 15 14 13 13 17 12 21 24 28 28 35 29 33 28 26 21 19 28 33 41 38 51 60 60 54
96 97 98 96 97 96 96 96 95 96 94 96 98 97 62 49 28 18 29 27 14 13 13 14 10 14 13 24 29 35 36 34 27 32 34 31 18 22 30 38 46 38 47 56 53
68 88 96 99 97 100 98 97 97 97 95 97 96 96 96 75 79 64 22 17 36 35 35 22 15 13 12 17 33 42 38 40 39 38 37 26 27 31 28 33 35 44 49 55 60
50 72 78 92 96 93 98 96 98 96 97 97 98 97 97 98 93 79 94 72 40 37 44 44 47 32 20 16 15 22 53 72 78 53 53 42 43 46 43 37 37 37 40 51 54
32 28 46 85 92 94 94 89 92 96 97 99 97 98 97 97 98 99 93 92 94 85 82 83 86 61 45 30 24 18 28 38 39 43 33 36 43 54 48 46 54 48 44 41 59
51 52 50 50 84 88 81 82 94 95 100 96 98 98 98 97 97 97 97 98 99 97 98 96 79 73 85 76 38 34 21 23 33 34 34 34 24 50 63 62 57 57 59 53 40
Wind_Speed
36 37 39 41 46 48 54 60 66 74 83 89 63 40 33 31 24 23 28 27 24 29 39 52 62 65 63 69 77 73 73 74 72 70 62 51 52 52 47 43 35 34 31 28 27
35 38 41 45 47 50 56 63 70 77 86 71 45 31 30 21 22 26 26 24 22 21 29 44 59 64 63 66 73 78 74 69 74 68 60 52 50 52 50 45 38 34 36 31 27
36 39 43 45 47 53 59 66 71 80 79 55 35 30 16 16 18 20 17 19 24 21 25 35 54 63 66 64 69 76 61 65 75 69 57 51 52 52 48 42 35 27 25 26 25
37 41 42 48 51 56 62 66 72 83 69 44 25 24 8 13 16 20 20 14 17 20 17 30 47 63 64 61 66 73 76 49 68 64 57 55 55 54 48 40 38 32 28 27 25
37 40 44 49 52 57 63 66 75 81 61 36 22 16 6 13 19 21 19 11 11 14 17 27 40 57 62 52 56 66 73 66 64 56 55 58 56 51 50 47 39 37 33 31 29
38 42 45 49 53 57 63 65 74 75 56 31 19 11 11 13 19 18 19 9 8 13 17 27 36 53 58 53 43 60 73 65 60 50 58 60 56 52 50 49 38 38 34 30 29
41 44 46 49 53 57 60 64 73 69 52 34 20 18 16 17 19 18 14 4 3 6 15 26 38 54 61 54 43 59 70 72 56 61 59 60 58 57 53 48 46 43 38 33 32
41 45 46 48 52 56 57 61 71 63 46 32 27 24 22 19 17 12 8 4 1 8 11 26 41 59 63 60 32 51 65 72 61 60 60 61 61 53 53 53 47 45 44 39 34
41 45 46 49 50 53 54 59 67 60 45 33 27 30 27 26 21 18 9 3 7 3 17 32 46 53 63 49 37 55 69 71 57 62 57 63 60 47 54 53 48 44 42 39 36
42 45 47 49 49 50 49 56 64 57 48 39 32 32 33 28 24 18 14 7 11 9 22 38 55 60 39 44 49 40 63 68 60 61 52 56 59 58 51 50 48 44 43 40 36
40 42 45 45 45 45 45 52 57 54 45 46 35 30 29 30 30 26 10 15 11 15 29 45 63 50 35 47 53 41 56 53 51 64 53 53 55 54 47 50 49 47 44 41 37
39 40 43 44 41 37 40 46 53 51 43 42 38 33 30 29 31 25 16 13 14 18 39 45 57 57 41 28 52 41 46 52 57 61 43 54 52 50 43 47 47 46 43 40 39
38 40 39 38 39 35 33 38 45 44 40 41 43 45 37 30 26 29 16 10 12 23 43 45 52 46 34 31 56 50 39 48 54 55 43 56 53 49 42 42 44 42 43 39 35
38 38 39 37 37 34 28 30 38 38 39 39 39 40 45 35 29 26 23 20 21 40 43 46 50 23 11 41 46 41 39 39 55 57 39 52 51 51 46 42 46 43 42 41 38
34 37 38 37 30 36 27 22 29 37 32 32 37 38 44 38 40 37 23 34 35 38 38 38 31 13 12 36 50 37 32 44 50 40 48 44 52 54 47 44 44 44 41 41 39
37 34 36 40 32 28 29 20 22 25 28 25 29 35 37 37 37 47 43 36 32 30 33 33 26 21 25 23 27 29 24 26 46 46 42 49 54 49 44 43 41 40 40 41 41
39 35 34 39 38 23 27 16 14 15 18 24 26 30 33 35 29 34 37 34 27 26 26 21 14 24 29 24 24 26 26 27 34 44 38 42 58 55 45 38 36 32 38 40 39
39 35 35 36 32 25 21 21 12 7 9 15 20 23 27 32 30 25 24 31 30 25 20 22 19 23 37 35 21 19 16 22 31 35 39 43 47 43 44 45 44 39 30 34 35
37 40 39 41 38 26 22 20 16 8 5 5 10 14 18 21 26 26 19 25 29 25 24 16 17 17 30 31 16 11 15 13 14 28 28 39 37 43 48 51 47 43 43 40 37
40 38 46 41 38 29 25 22 19 17 8 7 6 6 7 10 14 18 22 15 22 18 16 12 11 13 20 28 23 16 17 15 17 20 22 26 32 34 43 49 51 41 36 33 36
38 37 40 39 39 36 23 24 23 19 19 11 12 11 6 2 2 6 9 13 11 8 9 9 7 8 11 15 22 25 28 26 25 25 21 20 22 26 33 45 54 54 46 41 36
39 37 38 41 38 36 32 26 21 22 23 23 16 17 17 16 9 6 5 3 3 4 5 6 10 12 15 11 14 19 27 29 28 25 27 24 21 31 31 40 52 41 29 26 36
43 42 38 39 38 36 32 24 22 22 23 24 25 20 21 22 24 18 15 13 11 9 9 10 11 11 14 19 17 21 24 27 28 28 28 30 29 32 36 40 49 56 53 52 47
35 36 38 37 37 33 33 28 23 24 23 26 26 26 22 25 26 26 27 25 26 23 23 23 22 21 18 17 18 22 26 29 31 28 31 30 33 36 40 42 47 50 52 50 45
32 32 32 31 30 32 32 32 28 31 32 31 27 28 27 25 24 27 29 31 30 31 31 31 30 27 28 28 27 27 29 33 36 32 36 31 34 37 38 42 44 45 47 49 48
35 35 34 33 30 30 30 30 30 28 32 33 33 31 30 29 28 27 28 30 31 33 34 34 33 33 30 30 32 33 36 38 35 34 34 37 37 37 38 40 44 47 47 45 48
36 35 35 33 30 28 27 29 31 33 31 30 34 33 33 33 32 32 32 31 30 33 35 35 34 35 37 37 38 43 35 37 39 39 35 39 29 37 41 42 41 43 47 50 53
Wind_Direction
332 332 331 330 328 327 328 331 330 325 326 320 318 309 302 296 286 294 293 284 268 250 230 222 214 216 216 209 210 207 205 200 203 210 209 196 200 212 218 216 212 219 222 210 200
334 333 334 332 331 333 334 337 332 335 329 329 318 311 303 285 294 306 296 266 270 259 237 218 210 207 207 207 206 207 206 197 199 204 206 199 202 212 216 217 212 215 217 215 204
336 337 337 338 337 338 340 339 340 337 337 333 324 316 305 299 310 308 301 269 274 266 238 217 205 201 203 202 205 204 196 199 199 200 202 194 196 209 213 214 212 207 210 218 213
338 341 340 344 344 342 344 343 344 342 345 337 336 329 324 319 319 324 314 283 268 264 259 219 204 197 197 196 205 201 197 199 197 198 193 190 199 206 208 210 211 210 213 216 218
341 340 342 344 346 346 347 349 347 349 350 348 343 343 335 324 323 324 319 298 263 255 248 220 205 193 189 186 198 198 199 201 198 199 187 188 196 205 204 200 201 211 216 211 210
345 344 343 345 348 349 352 351 352 355 356 1 353 13 6 340 324 327 320 270 244 250 235 214 198 187 182 181 197 201 197 198 198 192 190 191 194 198 206 207 196 200 202 211 212
347 346 348 349 349 352 354 353 358 1 3 16 27 34 11 343 338 331 322 276 326 262 219 205 190 182 175 169 183 197 195 201 183 194 188 193 194 199 202 206 203 203 211 220 218
352 350 351 352 352 354 356 356 2 8 11 14 26 27 14 357 347 337 317 282 251 203 180 187 181 171 175 185 166 194 195 199 192 186 186 191 194 198 200 204 205 206 217 221 220
353 353 354 353 354 355 357 358 6 13 25 26 33 35 30 24 17 17 4 15 99 39 162 178 171 169 170 180 172 184 192 196 192 190 186 186 197 194 204 205 207 208 213 219 220
350 351 355 354 354 356 358 1 6 17 35 42 45 37 25 23 16 13 11 47 120 134 160 172 163 154 161 186 188 177 189 194 188 192 186 190 194 203 208 207 209 207 213 219 221
347 348 352 355 354 356 358 3 12 21 31 40 35 32 20 28 23 17 33 44 120 133 158 163 161 166 136 185 184 191 185 189 178 188 194 196 194 200 207 210 208 208 211 215 220
346 346 347 353 353 356 358 6 12 23 35 39 33 13 10 21 31 37 16 52 121 140 157 160 164 169 167 158 188 172 193 191 185 188 195 189 196 197 206 207 208 207 210 211 216
341 343 345 348 350 351 357 6 17 25 37 45 40 33 31 36 45 47 29 31 88 142 151 155 167 178 175 167 178 186 183 185 185 194 194 187 192 194 205 208 207 209 213 215 218
335 336 341 345 349 346 357 1 15 25 38 39 34 39 40 48 48 63 39 37 111 138 147 151 151 139 146 173 159 171 186 186 193 192 171 186 192 195 207 208 210 211 214 213 216
324 329 330 336 343 346 350 9 10 20 34 29 29 35 37 55 62 69 71 86 114 126 137 142 149 121 174 183 178 184 171 179 190 191 204 185 199 198 205 205 210 213 214 215 217
322 321 325 327 336 338 342 357 15 16 31 22 24 27 32 44 65 73 78 85 97 116 132 141 148 130 150 183 183 187 179 178 203 201 203 191 203 202 206 205 207 213 215 215 216
325 317 319 321 333 328 339 344 354 22 16 28 34 33 35 47 57 75 83 85 88 113 121 123 135 152 140 137 156 188 209 196 197 204 204 197 205 206 205 207 207 216 221 217 219
319 321 313 314 330 322 329 325 327 0 12 26 32 37 38 42 56 69 95 103 98 98 106 95 121 151 145 144 119 131 153 197 202 206 210 204 211 209 221 222 219 220 217 216 223
317 318 316 312 320 325 314 326 312 291 318 341 12 30 34 38 47 63 68 102 98 102 109 103 107 141 168 158 142 121 130 163 189 212 217 219 224 229 229 221 222 221 222 219 217
319 322 322 317 316 317 313 305 308 290 254 250 275 333 33 32 34 53 76 82 116 119 108 110 116 150 188 199 219 223 210 205 200 205 218 224 223 222 222 223 223 226 218 223 226
309 310 314 317 316 307 303 298 296 293 281 242 236 245 257 318 45 47 64 90 95 142 154 161 187 189 174 201 222 221 232 231 221 221 216 220 219 215 219 224 224 230 231 228 229
304 307 308 310 308 313 304 300 293 285 279 276 245 222 235 243 217 251 254 211 150 146 158 167 201 226 224 220 230 223 213 214 218 229 213 212 209 211 221 221 224 224 215 223 226
306 303 302 305 304 304 299 292 279 272 270 271 274 253 226 231 235 223 229 246 237 241 262 263 231 228 234 221 233 235 233 229 223 219 223 221 218 217 216 218 225 229 237 241 237
318 308 302 301 300 300 298 289 279 266 267 261 264 270 256 237 233 227 238 237 241 250 260 259 263 266 263 258 245 236 242 246 245 241 234 225 223 222 222 222 222 225 232 239 239
324 327 323 309 299 299 299 298 290 277 268 266 260 257 261 258 250 240 232 232 238 239 248 257 255 255 257 257 251 245 239 243 243 242 246 239 234 229 226 229 231 229 228 229 233
315 316 318 318 308 301 297 294 290 291 289 271 259 257 258 256 260 259 255 243 236 240 239 241 240 241 244 249 251 247 247 244 246 243 238 241 232 234 235 236 236 236 236 231 229
311 308 308 309 307 306 306 296 286 284 284 282 270 264 263 261 257 258 263 265 258 243 242 241 241 241 238 239 242 241 245 254 255 254 254 244 234 234 242 246 243 240 242 242 237